Weather History for Jackson, WY

Change the Weather History Date:

Saturday, May 25, 2013

  Actual Average Record
Temperature  
Mean Temperature 48 °F -  
Max Temperature 69 °F 64 °F 77 °F (1969)
Min Temperature 28 °F 34 °F 20 °F (1975)
Degree Days  
Heating Degree Days 16    
Moisture  
Dew Point 26 °F    
Average Humidity 54    
Maximum Humidity 86    
Minimum Humidity 15    
Precipitation  
Precipitation 0.00 in - - ()
Sea Level Pressure  
Sea Level Pressure 30.02 in    
Wind  
Wind Speed 7 mph (NNW)    
Max Wind Speed 25 mph    
Max Gust Speed 32 mph    
Visibility 10 miles    
Events      
Averages and records for this station are not official NWS values.
T = Trace of Precipitation, MM = Missing Value Source: NWS Daily Summary

Daily Weather History Graph

Daily Weather History Graph

Search for Another Location

Airport:

Trip Planner

Search our weather history database for the weather conditions in past years. The results will help you decide how hot, cold, wet, or windy it might be!

Date:

Astronomy

May. 25, 2013 Rise Set
Actual Time 5:48 AM MDT 8:51 PM MDT
Civil Twilight 5:14 AM MDT 9:26 PM MDT
Nautical Twilight 4:30 AM MDT 10:10 PM MDT
Astronomical Twilight 3:38 AM MDT 11:02 PM MDT
Moon 9:43 PM MDT (5/25) 6:19 AM MDT (5/25)
Length of Visible Light 16h 11m
Length of Day
15h 03m
Waxing Gibbous, 99% of the Moon is Illuminated
May 25
Waxing Gibbous
May 31
Last Quarter
Jun 8
New
Jun 16
First Quarter
Jun 23
Full

Hourly Weather History & Observations

Time (MDT) Temp. Windchill Dew Point Humidity Pressure Visibility Wind Dir Wind Speed Gust Speed Precip Events Conditions
12:15 AM 33.8 °F 27.7 °F 23.0 °F 65% 30.05 in 10.0 mi North 6.9 mph - N/A   Clear
12:35 AM 33.8 °F 26.4 °F 23.0 °F 65% 30.04 in 10.0 mi North 9.2 mph - N/A   Clear
12:55 AM 33.8 °F 27.7 °F 23.0 °F 65% 30.04 in 10.0 mi North 6.9 mph - N/A   Clear
1:35 AM 35.6 °F 32.8 °F 24.8 °F 65% 30.04 in 10.0 mi North 3.5 mph - N/A   Clear
2:15 AM 30.2 °F 23.4 °F 24.8 °F 80% 30.04 in 10.0 mi NNE 6.9 mph - N/A   Clear
2:35 AM 28.4 °F 21.2 °F 24.8 °F 86% 30.03 in 10.0 mi NNW 6.9 mph - N/A   Clear
2:55 AM 28.4 °F 20.4 °F 24.8 °F 86% 30.03 in 10.0 mi North 8.1 mph - N/A   Clear
3:15 AM 28.4 °F 20.4 °F 24.8 °F 86% 30.03 in 10.0 mi North 8.1 mph - N/A   Clear
3:35 AM 30.2 °F 23.4 °F 26.6 °F 86% 30.02 in 10.0 mi North 6.9 mph - N/A   Clear
3:55 AM 32.0 °F 24.2 °F 24.8 °F 75% 30.03 in 10.0 mi North 9.2 mph - N/A   Clear
4:15 AM 32.0 °F 28.7 °F 24.8 °F 75% 30.04 in 10.0 mi NE 3.5 mph - N/A   Clear
4:35 AM 32.0 °F 26.4 °F 24.8 °F 75% 30.04 in 10.0 mi North 5.8 mph - N/A   Clear
4:55 AM 28.4 °F 23.3 °F 24.8 °F 86% 30.04 in 10.0 mi North 4.6 mph - N/A   Clear
5:15 AM 28.4 °F 23.3 °F 24.8 °F 86% 30.04 in 10.0 mi North 4.6 mph - N/A   Clear
6:35 AM 28.4 °F - 24.8 °F 86% 30.04 in - Calm Calm - N/A   Unknown
6:51 AM 30.2 °F - 24.8 °F 80% 30.05 in 10.0 mi Calm Calm - N/A   Clear
7:51 AM 37.4 °F - 24.8 °F 60% 30.05 in 10.0 mi Calm Calm - N/A   Clear
8:51 AM 42.8 °F - 21.2 °F 42% 30.03 in 10.0 mi Calm Calm - N/A   Clear
9:51 AM 48.2 °F - 21.2 °F 34% 30.01 in 10.0 mi SE 4.6 mph - N/A   Scattered Clouds
10:51 AM 55.4 °F - 24.8 °F 31% 29.99 in 10.0 mi South 6.9 mph - N/A   Clear
11:51 AM 64.4 °F - 26.6 °F 24% 29.97 in 10.0 mi South 8.1 mph - N/A   Partly Cloudy
12:51 PM 66.2 °F - 23.0 °F 19% 29.96 in 10.0 mi South 11.5 mph 16.1 mph N/A   Clear
1:54 PM 66.2 °F - 24.8 °F 21% 29.95 in 10.0 mi SSW 11.5 mph 17.3 mph N/A   Mostly Cloudy
2:56 PM 68.0 °F - 19.4 °F 16% 29.95 in 10.0 mi SSW 25.3 mph 32.2 mph N/A   Scattered Clouds
3:51 PM 69.8 °F - 19.4 °F 15% 29.95 in 10.0 mi SSW 18.4 mph 27.6 mph N/A   Scattered Clouds
4:59 PM 62.6 °F - 30.2 °F 30% 29.96 in 10.0 mi West 16.1 mph 24.2 mph N/A   Scattered Clouds
5:55 PM 62.6 °F - 30.2 °F 30% 29.97 in 10.0 mi WSW 13.8 mph 21.9 mph N/A   Clear
6:53 PM 62.6 °F - 30.2 °F 30% 29.99 in 10.0 mi WSW 11.5 mph - N/A   Clear
8:20 PM 57.2 °F - 30.2 °F 36% 30.01 in 10.0 mi Calm Calm - N/A   Clear
8:51 PM 57.2 °F - 28.4 °F 33% 30.01 in 10.0 mi Calm Calm - N/A   Clear
8:55 PM 53.6 °F - 28.4 °F 38% 30.01 in 10.0 mi NNW 4.6 mph - N/A   Clear
9:15 PM 53.6 °F - 28.4 °F 38% 30.01 in 10.0 mi NNW 3.5 mph - N/A   Clear
9:36 PM 48.2 °F - 30.2 °F 50% 30.02 in 10.0 mi NNE 3.5 mph - N/A   Clear
9:55 PM 46.4 °F 42.4 °F 30.2 °F 53% 30.03 in 10.0 mi North 8.1 mph - N/A   Clear
10:15 PM 44.6 °F 40.2 °F 30.2 °F 57% 30.03 in 10.0 mi North 8.1 mph - N/A   Clear
10:55 PM 46.4 °F 44.3 °F 30.2 °F 53% 30.04 in 10.0 mi North 4.6 mph - N/A   Clear
11:35 PM 44.6 °F - 30.2 °F 57% 30.03 in 10.0 mi Calm Calm - N/A   Clear
11:55 PM 44.6 °F - 30.2 °F 57% 30.03 in 10.0 mi Calm Calm - N/A   Clear